| time (UTC) | temp F | wind direction | speed knots | gust knots | rain 1hr in | rain 24hr in | rain mn in | humidity % | barometer mb |
| 20260904222143 | 99 | 33 | 1.7 | 2.6 | 0.00 | 0.00 | 0.00 | 35 | 1013.2 |
| 20260904221642 | 100 | 41 | 0.0 | 0.9 | 0.00 | 0.00 | 0.00 | 35 | 1013.0 |
| 20260904221137 | 100 | 143 | 4.3 | 7.0 | 0.00 | 0.00 | 0.00 | 35 | 1013.2 |
| 20260904220632 | 99 | 23 | 0.9 | 0.9 | 0.00 | 0.00 | 0.00 | 36 | 1013.1 |
| 20260904220127 | 100 | 104 | 5.2 | 7.0 | 0.00 | 0.00 | 0.00 | 34 | 1013.4 |
| 20260904215622 | 101 | 131 | 5.2 | 6.1 | 0.00 | 0.00 | 0.00 | 34 | 1013.4 |
| 20260904215118 | 100 | 223 | 3.5 | 5.2 | 0.00 | 0.00 | 0.00 | 34 | 1013.3 |
| 20260904214618 | 101 | 30 | 1.7 | 3.5 | 0.00 | 0.00 | 0.00 | 34 | 1013.4 |
| 20260904214113 | 100 | 43 | 1.7 | 2.6 | 0.00 | 0.00 | 0.00 | 34 | 1013.4 |
| 20260904213611 | 100 | 131 | 1.7 | 3.5 | 0.00 | 0.00 | 0.00 | 35 | 1013.7 |
| 20260904213108 | 101 | 117 | 3.5 | 7.0 | 0.00 | 0.00 | 0.00 | 34 | 1013.7 |
| 20260904212607 | 101 | 232 | 2.6 | 3.5 | 0.00 | 0.00 | 0.00 | 34 | 1013.5 |
| 20260904212103 | 100 | 328 | 0.9 | 1.7 | 0.00 | 0.00 | 0.00 | 34 | 1013.3 |
| 20260904211602 | 100 | 67 | 1.7 | 1.7 | 0.00 | 0.00 | 0.00 | 35 | 1013.6 |
| 20260904211058 | 100 | 105 | 3.5 | 3.5 | 0.00 | 0.00 | 0.00 | 35 | 1013.6 |
| 20260904210557 | 100 | 183 | 3.5 | 6.1 | 0.00 | 0.00 | 0.00 | 35 | 1013.7 |
| 20260904210053 | 100 | 28 | 1.7 | 1.7 | 0.00 | 0.00 | 0.00 | 36 | 1013.6 |
| 20260904205548 | 101 | 16 | 0.0 | 0.9 | 0.00 | 0.00 | 0.00 | 35 | 1014.0 |
| 20260904205045 | 101 | 124 | 2.6 | 3.5 | 0.00 | 0.00 | 0.00 | 35 | 1013.8 |
| 20260904204541 | 101 | 190 | 2.6 | 2.6 | 0.00 | 0.00 | 0.00 | 35 | 1014.0 |
| 20260904204036 | 101 | 133 | 5.2 | 7.0 | 0.00 | 0.00 | 0.00 | 33 | 1014.0 |
| 20260904203532 | 101 | 182 | 3.5 | 3.5 | 0.00 | 0.00 | 0.00 | 34 | 1014.0 |
| 20260904203028 | 101 | 239 | 5.2 | 7.0 | 0.00 | 0.00 | 0.00 | 35 | 1013.9 |
| 20260904202524 | 101 | 192 | 4.3 | 6.1 | 0.00 | 0.00 | 0.00 | 35 | 1014.1 |
| 20260904202020 | 100 | 13 | 0.9 | 1.7 | 0.00 | 0.00 | 0.00 | 35 | 1014.1 |
| 20260904201515 | 99 | 340 | 2.6 | 2.6 | 0.00 | 0.00 | 0.00 | 36 | 1014.1 |
| 20260904201010 | 100 | 232 | 5.2 | 6.1 | 0.00 | 0.00 | 0.00 | 36 | 1014.4 |
| 20260904200509 | 101 | 176 | 4.3 | 6.1 | 0.00 | 0.00 | 0.00 | 34 | 1014.5 |
| 20260904200004 | 99 | 8 | 2.6 | 2.6 | 0.00 | 0.00 | 0.00 | 37 | 1014.5 |
| 20260904195502 | 99 | 154 | 3.5 | 3.5 | 0.00 | 0.00 | 0.00 | 37 | 1014.5 |
| 20260904195001 | 99 | 184 | 4.3 | 7.0 | 0.00 | 0.00 | 0.00 | 36 | 1014.6 |
| 20260904194457 | 100 | 259 | 4.3 | 6.1 | 0.00 | 0.00 | 0.00 | 36 | 1014.6 |
| 20260904193951 | 100 | 173 | 2.6 | 2.6 | 0.00 | 0.00 | 0.00 | 36 | 1014.6 |
| 20260904193447 | 100 | 336 | 2.6 | 3.5 | 0.00 | 0.00 | 0.00 | 36 | 1014.7 |
| 20260904192942 | 99 | 214 | 2.6 | 3.5 | 0.00 | 0.00 | 0.00 | 37 | 1014.9 |
| 20260904192437 | 98 | 204 | 4.3 | 6.1 | 0.00 | 0.00 | 0.00 | 38 | 1014.7 |
| 20260904191933 | 98 | 185 | 5.2 | 6.1 | 0.00 | 0.00 | 0.00 | 38 | 1014.9 |
| 20260904191430 | 97 | 248 | 5.2 | 7.0 | 0.00 | 0.00 | 0.00 | 40 | 1014.9 |
| 20260904190926 | 97 | 103 | 6.1 | 7.0 | 0.00 | 0.00 | 0.00 | 40 | 1015.0 |
| 20260904190426 | 96 | 160 | 6.1 | 7.8 | 0.00 | 0.00 | 0.00 | 40 | 1015.0 |
| 20260904185923 | 96 | 160 | 1.7 | 2.6 | 0.00 | 0.00 | 0.00 | 41 | 1015.3 |
| 20260904185419 | 97 | 72 | 2.6 | 3.5 | 0.00 | 0.00 | 0.00 | 41 | 1015.3 |
| 20260904184918 | 97 | 294 | 2.6 | 2.6 | 0.00 | 0.00 | 0.00 | 41 | 1015.2 |
| 20260904184413 | 97 | 108 | 7.0 | 7.8 | 0.00 | 0.00 | 0.00 | 41 | 1015.3 |
| 20260904183908 | 97 | 223 | 4.3 | 5.2 | 0.00 | 0.00 | 0.00 | 42 | 1015.4 |
| 20260904183403 | 97 | 134 | 2.6 | 3.5 | 0.00 | 0.00 | 0.00 | 41 | 1015.5 |
| 20260904182900 | 97 | 155 | 3.5 | 5.2 | 0.00 | 0.00 | 0.00 | 39 | 1015.6 |
| 20260904182400 | 97 | 164 | 5.2 | 6.1 | 0.00 | 0.00 | 0.00 | 41 | 1015.7 |
| 20260904181855 | 96 | 346 | 2.6 | 3.5 | 0.00 | 0.00 | 0.00 | 41 | 1015.6 |
| 20260904181349 | 96 | 222 | 1.7 | 3.5 | 0.00 | 0.00 | 0.00 | 42 | 1015.6 |
| 20260904180845 | 96 | 4 | 0.9 | 1.7 | 0.00 | 0.00 | 0.00 | 43 | 1015.6 |
| 20260904180335 | 95 | 91 | 3.5 | 5.2 | 0.00 | 0.00 | 0.00 | 45 | 1015.9 |
| 20260904175834 | 95 | 113 | 3.5 | 5.2 | 0.00 | 0.00 | 0.00 | 45 | 1016.0 |
| 20260904175334 | 96 | 144 | 4.3 | 8.7 | 0.00 | 0.00 | 0.00 | 44 | 1016.0 |
| 20260904174827 | 96 | 150 | 3.5 | 3.5 | 0.00 | 0.00 | 0.00 | 43 | 1016.1 |
| 20260904174323 | 95 | 197 | 2.6 | 2.6 | 0.00 | 0.00 | 0.00 | 44 | 1016.0 |
| 20260904173818 | 94 | 96 | 2.6 | 2.6 | 0.00 | 0.00 | 0.00 | 45 | 1016.0 |
| 20260904173313 | 95 | 209 | 6.1 | 7.0 | 0.00 | 0.00 | 0.00 | 44 | 1016.3 |
| 20260904172810 | 95 | 237 | 3.5 | 5.2 | 0.00 | 0.00 | 0.00 | 44 | 1016.4 |
| 20260904172308 | 95 | 115 | 2.6 | 3.5 | 0.00 | 0.00 | 0.00 | 45 | 1016.3 |
| 20260904171804 | 95 | 166 | 4.3 | 6.1 | 0.00 | 0.00 | 0.00 | 43 | 1016.5 |
| 20260904171259 | 95 | 151 | 3.5 | 5.2 | 0.00 | 0.00 | 0.00 | 44 | 1016.4 |
| 20260904170756 | 94 | 130 | 3.5 | 5.2 | 0.00 | 0.00 | 0.00 | 45 | 1016.4 |
| 20260904170251 | 95 | 114 | 4.3 | 6.1 | 0.00 | 0.00 | 0.00 | 45 | 1016.5 |
| 20260904165750 | 94 | 319 | 2.6 | 3.5 | 0.00 | 0.00 | 0.00 | 46 | 1016.5 |
| 20260904165244 | 93 | 141 | 7.0 | 9.6 | 0.00 | 0.00 | 0.00 | 46 | 1016.6 |
| 20260904164744 | 93 | 229 | 4.3 | 5.2 | 0.00 | 0.00 | 0.00 | 47 | 1016.5 |
| 20260904164239 | 93 | 171 | 3.5 | 6.1 | 0.00 | 0.00 | 0.00 | 48 | 1016.8 |
| 20260904163735 | 93 | 83 | 3.5 | 3.5 | 0.00 | 0.00 | 0.00 | 47 | 1016.8 |
| 20260904163230 | 93 | 269 | 4.3 | 5.2 | 0.00 | 0.00 | 0.00 | 49 | 1016.7 |
| 20260904162729 | 93 | 21 | 1.7 | 1.7 | 0.00 | 0.00 | 0.00 | 49 | 1016.7 |
| 20260904162225 | 91 | 111 | 2.6 | 3.5 | 0.00 | 0.00 | 0.00 | 50 | 1016.8 |
| 20260904161720 | 91 | 188 | 6.1 | 7.8 | 0.00 | 0.00 | 0.00 | 50 | 1016.7 |
| 20260904161215 | 91 | 223 | 5.2 | 7.0 | 0.00 | 0.00 | 0.00 | 51 | 1016.7 |
| 20260904160711 | 92 | 188 | 1.7 | 3.5 | 0.00 | 0.00 | 0.00 | 51 | 1016.9 |
| 20260904160206 | 92 | 178 | 3.5 | 5.2 | 0.00 | 0.00 | 0.00 | 49 | 1016.9 |
| 20260904155701 | 90 | 56 | 0.9 | 1.7 | 0.00 | 0.00 | 0.00 | 53 | 1016.7 |
| 20260904155200 | 91 | 152 | 3.5 | 3.5 | 0.00 | 0.00 | 0.00 | 53 | 1016.8 |
| 20260904154659 | 90 | 165 | 5.2 | 5.2 | 0.00 | 0.00 | 0.00 | 54 | 1016.7 |
| 20260904154159 | 91 | 88 | 1.7 | 2.6 | 0.00 | 0.00 | 0.00 | 53 | 1016.9 |
| 20260904153654 | 91 | 113 | 3.5 | 3.5 | 0.00 | 0.00 | 0.00 | 55 | 1016.8 |
| 20260904153149 | 90 | 298 | 2.6 | 3.5 | 0.00 | 0.00 | 0.00 | 55 | 1017.0 |
| 20260904152646 | 90 | 182 | 4.3 | 7.0 | 0.00 | 0.00 | 0.00 | 56 | 1016.9 |
| 20260904152142 | 89 | 150 | 2.6 | 2.6 | 0.00 | 0.00 | 0.00 | 57 | 1016.9 |
| 20260904151641 | 88 | 199 | 2.6 | 5.2 | 0.00 | 0.00 | 0.00 | 57 | 1016.8 |
| 20260904151140 | 88 | 167 | 2.6 | 2.6 | 0.00 | 0.00 | 0.00 | 58 | 1016.9 |
| 20260904150636 | 88 | 161 | 4.3 | 5.2 | 0.00 | 0.00 | 0.00 | 59 | 1016.9 |
| 20260904150132 | 88 | 178 | 6.1 | 7.8 | 0.00 | 0.00 | 0.00 | 58 | 1017.0 |
| 20260904145630 | 87 | 171 | 2.6 | 2.6 | 0.00 | 0.00 | 0.00 | 60 | 1016.7 |
| 20260904145125 | 87 | 271 | 2.6 | 3.5 | 0.00 | 0.00 | 0.00 | 60 | 1016.8 |
| 20260904144621 | 88 | 160 | 2.6 | 3.5 | 0.00 | 0.00 | 0.00 | 59 | 1016.9 |
| 20260904144116 | 87 | 299 | 1.7 | 1.7 | 0.00 | 0.00 | 0.00 | 60 | 1016.9 |
| 20260904143612 | 87 | 130 | 3.5 | 3.5 | 0.00 | 0.00 | 0.00 | 60 | 1016.7 |
| 20260904143108 | 87 | 237 | 2.6 | 3.5 | 0.00 | 0.00 | 0.00 | 60 | 1016.9 |
| 20260904142605 | 86 | 153 | 1.7 | 1.7 | 0.00 | 0.00 | 0.00 | 62 | 1016.8 |
| 20260904142105 | 86 | 163 | 3.5 | 5.2 | 0.00 | 0.00 | 0.00 | 62 | 1017.0 |
| 20260904141601 | 85 | 303 | 0.9 | 1.7 | 0.00 | 0.00 | 0.00 | 63 | 1016.8 |
| 20260904141056 | 85 | 32 | 1.7 | 1.7 | 0.00 | 0.00 | 0.00 | 63 | 1016.9 |
| 20260904140551 | 84 | 236 | 1.7 | 1.7 | 0.00 | 0.00 | 0.00 | 64 | 1016.9 |
| 20260904140045 | 84 | 128 | 3.5 | 3.5 | 0.00 | 0.00 | 0.00 | 65 | 1017.0 |
| 20260904135544 | 84 | 39 | 1.7 | 1.7 | 0.00 | 0.00 | 0.00 | 64 | 1016.8 |
| 20260904135041 | 84 | 97 | 1.7 | 1.7 | 0.00 | 0.00 | 0.00 | 64 | 1016.8 |
| 20260904134537 | 84 | 131 | 1.7 | 1.7 | 0.00 | 0.00 | 0.00 | 63 | 1016.8 |
| 20260904134030 | 83 | 170 | 1.7 | 2.6 | 0.00 | 0.00 | 0.00 | 63 | 1016.7 |
| 20260904133526 | 82 | 31 | 0.0 | 0.9 | 0.00 | 0.00 | 0.00 | 65 | 1016.9 |
| 20260904133022 | 82 | 231 | 1.7 | 1.7 | 0.00 | 0.00 | 0.00 | 65 | 1016.8 |
| 20260904132521 | 81 | 44 | 0.0 | 0.9 | 0.00 | 0.00 | 0.00 | 66 | 1016.6 |
| 20260904132022 | 81 | 60 | 1.7 | 2.6 | 0.00 | 0.00 | 0.00 | 66 | 1016.5 |
| 20260904131521 | 81 | 209 | 2.6 | 5.2 | 0.00 | 0.00 | 0.00 | 66 | 1016.8 |
| 20260904131017 | 80 | 100 | 3.5 | 5.2 | 0.00 | 0.00 | 0.00 | 66 | 1016.7 |
| 20260904130516 | 80 | 57 | 1.7 | 2.6 | 0.00 | 0.00 | 0.00 | 66 | 1016.4 |
| 20260904130011 | 80 | 93 | 1.7 | 2.6 | 0.00 | 0.00 | 0.00 | 66 | 1016.8 |
| 20260904125508 | 80 | 44 | 1.7 | 2.6 | 0.00 | 0.00 | 0.00 | 67 | 1016.5 |
| 20260904125003 | 80 | 172 | 3.5 | 3.5 | 0.00 | 0.00 | 0.00 | 67 | 1016.5 |
| 20260904124458 | 80 | 205 | 1.7 | 2.6 | 0.00 | 0.00 | 0.00 | 67 | 1016.5 |
| 20260904123953 | 79 | 48 | 0.9 | 0.9 | 0.00 | 0.00 | 0.00 | 68 | 1016.5 |
| 20260904123448 | 79 | 130 | 3.5 | 3.5 | 0.00 | 0.00 | 0.00 | 68 | 1016.3 |
| 20260904122943 | 79 | 38 | 0.0 | 0.9 | 0.00 | 0.00 | 0.00 | 69 | 1016.3 |
| 20260904122443 | 78 | 44 | 1.7 | 1.7 | 0.00 | 0.00 | 0.00 | 69 | 1016.4 |
| 20260904121937 | 78 | 44 | 0.9 | 0.9 | 0.00 | 0.00 | 0.00 | 70 | 1016.6 |
| 20260904121434 | 78 | 67 | 0.9 | 0.9 | 0.00 | 0.00 | 0.00 | 70 | 1016.3 |
| 20260904120930 | 78 | 24 | 0.0 | 0.0 | 0.00 | 0.00 | 0.00 | 70 | 1016.5 |
| 20260904120426 | 78 | 96 | 0.9 | 0.9 | 0.00 | 0.00 | 0.00 | 70 | 1016.4 |
| 20260904115920 | 78 | 145 | 0.9 | 1.7 | 0.00 | 0.00 | 0.00 | 70 | 1016.3 |
| 20260904115416 | 78 | 340 | 0.9 | 0.9 | 0.00 | 0.00 | 0.00 | 70 | 1016.1 |
| 20260904114910 | 78 | 194 | 1.7 | 2.6 | 0.00 | 0.00 | 0.00 | 70 | 1016.0 |
| 20260904114405 | 78 | 50 | 0.9 | 0.9 | 0.00 | 0.00 | 0.00 | 70 | 1016.1 |
| 20260904113901 | 78 | 98 | 1.7 | 2.6 | 0.00 | 0.00 | 0.00 | 70 | 1016.1 |
| 20260904113400 | 78 | 64 | 1.7 | 1.7 | 0.00 | 0.00 | 0.00 | 70 | 1016.2 |
| 20260904112859 | 78 | 30 | 1.7 | 1.7 | 0.00 | 0.00 | 0.00 | 70 | 1016.0 |
| 20260904112355 | 78 | 5 | 1.7 | 1.7 | 0.00 | 0.00 | 0.00 | 70 | 1016.0 |
| 20260904111851 | 78 | 47 | 0.9 | 0.9 | 0.00 | 0.00 | 0.00 | 70 | 1016.0 |
| 20260904111346 | 78 | 67 | 0.9 | 0.9 | 0.00 | 0.00 | 0.00 | 69 | 1015.9 |
| 20260904110842 | 78 | 32 | 0.9 | 1.7 | 0.00 | 0.00 | 0.00 | 69 | 1016.0 |
| 20260904110341 | 78 | 50 | 0.9 | 1.7 | 0.00 | 0.00 | 0.00 | 69 | 1015.9 |
| 20260904105836 | 78 | 115 | 1.7 | 1.7 | 0.00 | 0.00 | 0.00 | 69 | 1015.8 |
| 20260904105331 | 78 | 23 | 0.9 | 0.9 | 0.00 | 0.00 | 0.00 | 68 | 1015.7 |
| 20260904104826 | 79 | 1 | 0.9 | 0.9 | 0.00 | 0.00 | 0.00 | 68 | 1015.9 |
| 20260904104321 | 79 | 41 | 0.9 | 0.9 | 0.00 | 0.00 | 0.00 | 68 | 1015.7 |
| 20260904103818 | 79 | 164 | 4.3 | 6.1 | 0.00 | 0.00 | 0.00 | 67 | 1015.5 |
| 20260904103317 | 79 | 162 | 1.7 | 2.6 | 0.00 | 0.00 | 0.00 | 67 | 1015.5 |
| 20260904102813 | 79 | 190 | 1.7 | 1.7 | 0.00 | 0.00 | 0.00 | 67 | 1015.6 |
| 20260904102309 | 79 | 205 | 1.7 | 2.6 | 0.00 | 0.00 | 0.00 | 66 | 1015.6 |
| 20260904101804 | 80 | 42 | 0.9 | 0.9 | 0.00 | 0.00 | 0.00 | 66 | 1015.4 |
| 20260904101301 | 80 | 116 | 1.7 | 2.6 | 0.00 | 0.00 | 0.00 | 66 | 1015.4 |
| 20260904100756 | 80 | 178 | 3.5 | 6.1 | 0.00 | 0.00 | 0.00 | 66 | 1015.4 |
| 20260904100252 | 80 | 57 | 1.7 | 1.7 | 0.00 | 0.00 | 0.00 | 65 | 1015.4 |
| 20260904095752 | 80 | 55 | 0.9 | 0.9 | 0.00 | 0.00 | 0.00 | 65 | 1015.5 |
| 20260904095247 | 80 | 185 | 1.7 | 2.6 | 0.00 | 0.00 | 0.00 | 65 | 1015.5 |
| 20260904094742 | 80 | 46 | 0.9 | 0.9 | 0.00 | 0.00 | 0.00 | 65 | 1015.5 |
| 20260904094237 | 80 | 74 | 2.6 | 3.5 | 0.00 | 0.00 | 0.00 | 65 | 1015.5 |
| 20260904093733 | 80 | 182 | 2.6 | 2.6 | 0.00 | 0.00 | 0.00 | 65 | 1015.2 |
| 20260904093232 | 80 | 163 | 2.6 | 3.5 | 0.00 | 0.00 | 0.00 | 64 | 1015.2 |
| 20260904092729 | 81 | 194 | 1.7 | 1.7 | 0.00 | 0.00 | 0.00 | 64 | 1015.2 |
| 20260904092225 | 81 | 137 | 2.6 | 3.5 | 0.00 | 0.00 | 0.00 | 64 | 1015.2 |
| 20260904091721 | 81 | 34 | 0.9 | 0.9 | 0.00 | 0.00 | 0.00 | 63 | 1015.1 |
| 20260904091221 | 81 | 99 | 0.9 | 1.7 | 0.00 | 0.00 | 0.00 | 63 | 1015.1 |
| 20260904090717 | 81 | 198 | 2.6 | 2.6 | 0.00 | 0.00 | 0.00 | 63 | 1015.0 |
| 20260904090212 | 81 | 7 | 0.0 | 0.9 | 0.00 | 0.00 | 0.00 | 63 | 1015.1 |
| 20260904085708 | 81 | 40 | 0.0 | 0.9 | 0.00 | 0.00 | 0.00 | 63 | 1015.0 |
| 20260904085208 | 81 | 46 | 0.9 | 1.7 | 0.00 | 0.00 | 0.00 | 63 | 1015.1 |
| 20260904084702 | 81 | 345 | 0.9 | 0.9 | 0.00 | 0.00 | 0.00 | 63 | 1014.9 |
| 20260904084159 | 81 | 21 | 0.9 | 0.9 | 0.00 | 0.00 | 0.00 | 63 | 1015.0 |
| 20260904083655 | 81 | 31 | 0.9 | 0.9 | 0.00 | 0.00 | 0.00 | 63 | 1014.8 |
| 20260904083151 | 81 | 60 | 0.9 | 1.7 | 0.00 | 0.00 | 0.00 | 63 | 1014.9 |
| 20260904082645 | 81 | 99 | 1.7 | 1.7 | 0.00 | 0.00 | 0.00 | 62 | 1014.9 |
| 20260904082141 | 82 | 78 | 1.7 | 2.6 | 0.00 | 0.00 | 0.00 | 62 | 1015.1 |
| 20260904081636 | 82 | 7 | 0.9 | 0.9 | 0.00 | 0.00 | 0.00 | 62 | 1014.8 |
| 20260904081131 | 82 | 13 | 0.0 | 0.9 | 0.00 | 0.00 | 0.00 | 61 | 1014.7 |
| 20260904080627 | 82 | 11 | 0.9 | 1.7 | 0.00 | 0.00 | 0.00 | 61 | 1014.8 |
| 20260904080123 | 82 | 148 | 2.6 | 2.6 | 0.00 | 0.00 | 0.00 | 61 | 1014.7 |
| 20260904075619 | 82 | 170 | 2.6 | 2.6 | 0.00 | 0.00 | 0.00 | 61 | 1014.7 |
| 20260904075119 | 82 | 166 | 2.6 | 2.6 | 0.00 | 0.00 | 0.00 | 61 | 1014.7 |
| 20260904074618 | 82 | 24 | 0.0 | 0.9 | 0.00 | 0.00 | 0.00 | 60 | 1014.8 |
| 20260904074113 | 82 | 232 | 1.7 | 1.7 | 0.00 | 0.00 | 0.00 | 60 | 1014.8 |
| 20260904073608 | 83 | 153 | 1.7 | 1.7 | 0.00 | 0.00 | 0.00 | 60 | 1014.6 |
| 20260904073104 | 83 | 23 | 0.9 | 0.9 | 0.00 | 0.00 | 0.00 | 60 | 1014.5 |
| 20260904072600 | 83 | 164 | 2.6 | 3.5 | 0.00 | 0.00 | 0.00 | 59 | 1014.6 |
| 20260904072055 | 83 | 140 | 1.7 | 2.6 | 0.00 | 0.00 | 0.00 | 59 | 1014.6 |
| 20260904071550 | 83 | 345 | 1.7 | 2.6 | 0.00 | 0.00 | 0.00 | 59 | 1014.8 |
| 20260904071045 | 83 | 88 | 0.9 | 0.9 | 0.00 | 0.00 | 0.00 | 59 | 1014.8 |
| 20260904070544 | 83 | 181 | 3.5 | 3.5 | 0.00 | 0.00 | 0.00 | 59 | 1014.6 |
| 20260904070039 | 83 | 126 | 2.6 | 2.6 | 0.00 | 0.00 | 0.00 | 59 | 1014.8 |
| 20260904065534 | 83 | 66 | 2.6 | 3.5 | 0.00 | 0.00 | 0.00 | 59 | 1014.6 |
| 20260904065031 | 83 | 169 | 3.5 | 5.2 | 0.00 | 0.00 | 0.00 | 59 | 1014.6 |
| 20260904064527 | 83 | 47 | 0.9 | 0.9 | 0.00 | 0.00 | 0.00 | 59 | 1014.6 |
| 20260904064026 | 83 | 45 | 1.7 | 1.7 | 0.00 | 0.00 | 0.00 | 59 | 1014.6 |
| 20260904063523 | 83 | 58 | 1.7 | 1.7 | 0.00 | 0.00 | 0.00 | 59 | 1014.7 |
| 20260904063023 | 83 | 102 | 0.9 | 0.9 | 0.00 | 0.00 | 0.00 | 59 | 1014.8 |
| 20260904062520 | 83 | 94 | 2.6 | 2.6 | 0.00 | 0.00 | 0.00 | 59 | 1014.6 |
| 20260904062015 | 83 | 13 | 0.9 | 0.9 | 0.00 | 0.00 | 0.00 | 59 | 1014.6 |
| 20260904061511 | 83 | 26 | 1.7 | 2.6 | 0.00 | 0.00 | 0.00 | 59 | 1014.4 |
| 20260904061007 | 83 | 79 | 1.7 | 1.7 | 0.00 | 0.00 | 0.00 | 59 | 1014.8 |
| 20260904060503 | 84 | 161 | 3.5 | 3.5 | 0.00 | 0.00 | 0.00 | 58 | 1014.7 |
| 20260904055958 | 84 | 158 | 3.5 | 3.5 | 0.00 | 0.00 | 0.00 | 58 | 1014.7 |
| 20260904055454 | 84 | 146 | 1.7 | 2.6 | 0.00 | 0.00 | 0.00 | 58 | 1014.5 |
| 20260904054949 | 84 | 98 | 3.5 | 3.5 | 0.00 | 0.00 | 0.00 | 57 | 1014.6 |
| 20260904054444 | 84 | 43 | 0.9 | 0.9 | 0.00 | 0.00 | 0.00 | 57 | 1014.5 |
| 20260904053940 | 84 | 175 | 1.7 | 2.6 | 0.00 | 0.00 | 0.00 | 57 | 1014.6 |
| 20260904053439 | 84 | 186 | 0.9 | 1.7 | 0.00 | 0.00 | 0.00 | 57 | 1014.4 |
| 20260904052936 | 84 | 39 | 0.9 | 0.9 | 0.00 | 0.00 | 0.00 | 56 | 1014.4 |
| 20260904052432 | 85 | 39 | 1.7 | 1.7 | 0.00 | 0.00 | 0.00 | 56 | 1014.4 |
| 20260904051927 | 85 | 115 | 2.6 | 2.6 | 0.00 | 0.00 | 0.00 | 56 | 1014.6 |
| 20260904051424 | 85 | 23 | 1.7 | 2.6 | 0.00 | 0.00 | 0.00 | 56 | 1014.5 |
| 20260904050918 | 85 | 177 | 1.7 | 1.7 | 0.00 | 0.00 | 0.00 | 55 | 1014.6 |
| 20260904050414 | 85 | 157 | 2.6 | 2.6 | 0.00 | 0.00 | 0.00 | 55 | 1014.7 |
| 20260904045914 | 85 | 165 | 3.5 | 5.2 | 0.00 | 0.00 | 0.00 | 55 | 1014.5 |
| 20260904045409 | 85 | 44 | 1.7 | 2.6 | 0.00 | 0.00 | 0.00 | 55 | 1014.4 |
| 20260904044909 | 86 | 56 | 1.7 | 1.7 | 0.00 | 0.00 | 0.00 | 54 | 1014.5 |
| 20260904044406 | 86 | 142 | 1.7 | 2.6 | 0.00 | 0.00 | 0.00 | 54 | 1014.2 |
| 20260904043901 | 86 | 40 | 1.7 | 1.7 | 0.00 | 0.00 | 0.00 | 54 | 1014.4 |
| 20260904043358 | 86 | 18 | 0.0 | 0.0 | 0.00 | 0.00 | 0.00 | 53 | 1014.5 |
| 20260904042853 | 86 | 46 | 0.9 | 0.9 | 0.00 | 0.00 | 0.00 | 53 | 1014.4 |
| 20260904042349 | 87 | 139 | 2.6 | 2.6 | 0.00 | 0.00 | 0.00 | 52 | 1014.4 |
| 20260904041843 | 87 | 28 | 0.0 | 0.9 | 0.00 | 0.00 | 0.00 | 52 | 1014.4 |
| 20260904041339 | 87 | 32 | 0.9 | 0.9 | 0.00 | 0.00 | 0.00 | 52 | 1014.2 |
| 20260904040835 | 87 | 81 | 1.7 | 1.7 | 0.00 | 0.00 | 0.00 | 51 | 1014.2 |
| 20260904040330 | 87 | 20 | 0.9 | 0.9 | 0.00 | 0.00 | 0.00 | 51 | 1014.2 |
| 20260904035826 | 87 | 28 | 1.7 | 1.7 | 0.00 | 0.00 | 0.00 | 51 | 1014.1 |
| 20260904035323 | 88 | 37 | 0.9 | 1.7 | 0.00 | 0.00 | 0.00 | 51 | 1014.1 |
| 20260904034821 | 88 | 174 | 1.7 | 1.7 | 0.00 | 0.00 | 0.00 | 50 | 1014.1 |
| 20260904034317 | 88 | 138 | 1.7 | 2.6 | 0.00 | 0.00 | 0.00 | 50 | 1014.4 |
| 20260904033813 | 88 | 32 | 0.0 | 0.9 | 0.00 | 0.00 | 0.00 | 50 | 1014.4 |
| 20260904033309 | 88 | 69 | 0.9 | 1.7 | 0.00 | 0.00 | 0.00 | 50 | 1014.5 |
| 20260904032805 | 88 | 137 | 3.5 | 3.5 | 0.00 | 0.00 | 0.00 | 49 | 1014.1 |
| 20260904032306 | 88 | 145 | 1.7 | 1.7 | 0.00 | 0.00 | 0.00 | 50 | 1014.2 |
| 20260904031758 | 88 | 47 | 0.9 | 0.9 | 0.00 | 0.00 | 0.00 | 50 | 1014.4 |
| 20260904031254 | 88 | 64 | 0.9 | 1.7 | 0.00 | 0.00 | 0.00 | 50 | 1014.2 |
| 20260904030750 | 88 | 42 | 0.0 | 0.9 | 0.00 | 0.00 | 0.00 | 50 | 1014.2 |
| 20260904030245 | 89 | 83 | 0.0 | 0.9 | 0.00 | 0.00 | 0.00 | 49 | 1014.4 |
| 20260904025741 | 89 | 27 | 0.0 | 0.0 | 0.00 | 0.00 | 0.00 | 49 | 1014.1 |
| 20260904025236 | 89 | 28 | 0.9 | 0.9 | 0.00 | 0.00 | 0.00 | 49 | 1014.0 |
| 20260904024732 | 89 | 30 | 0.0 | 0.0 | 0.00 | 0.00 | 0.00 | 49 | 1013.7 |
| 20260904024227 | 89 | 34 | 0.9 | 0.9 | 0.00 | 0.00 | 0.00 | 49 | 1014.0 |
| 20260904023723 | 89 | 40 | 1.7 | 1.7 | 0.00 | 0.00 | 0.00 | 48 | 1013.9 |
| 20260904023219 | 90 | 38 | 0.0 | 0.9 | 0.00 | 0.00 | 0.00 | 48 | 1013.8 |
| 20260904022718 | 90 | 60 | 0.9 | 0.9 | 0.00 | 0.00 | 0.00 | 47 | 1013.8 |
| 20260904022216 | 90 | 42 | 0.9 | 1.7 | 0.00 | 0.00 | 0.00 | 47 | 1013.5 |
| 20260904021711 | 90 | 46 | 0.0 | 0.0 | 0.00 | 0.00 | 0.00 | 47 | 1013.5 |
| 20260904021206 | 91 | 337 | 0.9 | 0.9 | 0.00 | 0.00 | 0.00 | 46 | 1013.3 |
| 20260904020702 | 91 | 213 | 1.7 | 2.6 | 0.00 | 0.00 | 0.00 | 46 | 1013.2 |
| 20260904020201 | 91 | 165 | 1.7 | 1.7 | 0.00 | 0.00 | 0.00 | 46 | 1013.3 |
| 20260904015700 | 91 | 20 | 0.0 | 0.9 | 0.00 | 0.00 | 0.00 | 46 | 1013.4 |
| 20260904015201 | 91 | 41 | 1.7 | 1.7 | 0.00 | 0.00 | 0.00 | 46 | 1013.2 |
| 20260904014659 | 91 | 12 | 0.0 | 0.9 | 0.00 | 0.00 | 0.00 | 46 | 1013.3 |
| 20260904014154 | 91 | 325 | 0.0 | 0.9 | 0.00 | 0.00 | 0.00 | 45 | 1013.1 |
| 20260904013652 | 92 | 4 | 0.0 | 0.9 | 0.00 | 0.00 | 0.00 | 45 | 1012.9 |
| 20260904013147 | 92 | 148 | 1.7 | 2.6 | 0.00 | 0.00 | 0.00 | 44 | 1012.8 |
| 20260904012643 | 92 | 4 | 0.9 | 0.9 | 0.00 | 0.00 | 0.00 | 44 | 1012.8 |
| 20260904012141 | 93 | 32 | 0.9 | 1.7 | 0.00 | 0.00 | 0.00 | 44 | 1012.8 |
| 20260904011640 | 93 | 327 | 0.0 | 0.9 | 0.00 | 0.00 | 0.00 | 43 | 1012.8 |
| 20260904011137 | 93 | 110 | 2.6 | 2.6 | 0.00 | 0.00 | 0.00 | 43 | 1012.7 |
| 20260904010632 | 93 | 181 | 1.7 | 2.6 | 0.00 | 0.00 | 0.00 | 42 | 1012.6 |
| 20260904010129 | 94 | 31 | 0.0 | 0.9 | 0.00 | 0.00 | 0.00 | 42 | 1012.6 |
| 20260904005624 | 94 | 126 | 1.7 | 2.6 | 0.00 | 0.00 | 0.00 | 41 | 1012.7 |
| 20260904005119 | 94 | 203 | 3.5 | 3.5 | 0.00 | 0.00 | 0.00 | 41 | 1012.5 |
| 20260904004615 | 95 | 81 | 2.6 | 2.6 | 0.00 | 0.00 | 0.00 | 41 | 1012.6 |
| 20260904004114 | 95 | 343 | 0.9 | 0.9 | 0.00 | 0.00 | 0.00 | 40 | 1012.5 |
| 20260904003610 | 95 | 125 | 3.5 | 3.5 | 0.00 | 0.00 | 0.00 | 40 | 1012.5 |
| 20260904003106 | 95 | 140 | 1.7 | 2.6 | 0.00 | 0.00 | 0.00 | 40 | 1012.4 |
| 20260904002602 | 96 | 201 | 1.7 | 2.6 | 0.00 | 0.00 | 0.00 | 39 | 1012.4 |
| 20260904002102 | 96 | 42 | 1.7 | 2.6 | 0.00 | 0.00 | 0.00 | 39 | 1012.6 |
| 20260904001557 | 96 | 97 | 3.5 | 3.5 | 0.00 | 0.00 | 0.00 | 39 | 1012.4 |
| 20260904001056 | 96 | 180 | 0.9 | 1.7 | 0.00 | 0.00 | 0.00 | 38 | 1012.4 |
| 20260904000551 | 97 | 205 | 4.3 | 5.2 | 0.00 | 0.00 | 0.00 | 38 | 1012.4 |
| 20260904000047 | 97 | 211 | 4.3 | 5.2 | 0.00 | 0.00 | 0.00 | 37 | 1012.4 |
| 20260903235542 | 98 | 50 | 2.6 | 2.6 | 0.00 | 0.00 | 0.00 | 37 | 1012.3 |
| 20260903235037 | 98 | 199 | 1.7 | 2.6 | 0.00 | 0.00 | 0.00 | 36 | 1012.3 |
| 20260903234533 | 98 | 37 | 0.9 | 1.7 | 0.00 | 0.00 | 0.00 | 37 | 1012.3 |
| 20260903234028 | 98 | 141 | 3.5 | 3.5 | 0.00 | 0.00 | 0.00 | 37 | 1012.3 |
| 20260903233524 | 98 | 252 | 3.5 | 3.5 | 0.00 | 0.00 | 0.00 | 36 | 1012.4 |
| 20260903233020 | 98 | 109 | 3.5 | 5.2 | 0.00 | 0.00 | 0.00 | 36 | 1012.4 |
| 20260903232514 | 99 | 186 | 7.0 | 7.8 | 0.00 | 0.00 | 0.00 | 35 | 1012.4 |
| 20260903232009 | 99 | 171 | 3.5 | 5.2 | 0.00 | 0.00 | 0.00 | 35 | 1012.2 |
| 20260903231503 | 99 | 132 | 6.1 | 8.7 | 0.00 | 0.00 | 0.00 | 35 | 1012.3 |
| 20260903230958 | 100 | 184 | 4.3 | 6.1 | 0.00 | 0.00 | 0.00 | 34 | 1012.3 |
| 20260903230454 | 101 | 174 | 2.6 | 3.5 | 0.00 | 0.00 | 0.00 | 34 | 1012.1 |
| 20260903225951 | 100 | 222 | 1.7 | 2.6 | 0.00 | 0.00 | 0.00 | 34 | 1012.2 |
| 20260903225445 | 100 | 239 | 3.5 | 3.5 | 0.00 | 0.00 | 0.00 | 34 | 1012.2 |
| 20260903224942 | 100 | 249 | 3.5 | 3.5 | 0.00 | 0.00 | 0.00 | 34 | 1012.2 |
| 20260903224437 | 101 | 146 | 2.6 | 2.6 | 0.00 | 0.00 | 0.00 | 34 | 1012.2 |
| 20260903223933 | 101 | 106 | 2.6 | 3.5 | 0.00 | 0.00 | 0.00 | 34 | 1012.0 |
| 20260903223432 | 101 | 358 | 1.7 | 1.7 | 0.00 | 0.00 | 0.00 | 33 | 1012.1 |
| 20260903222931 | 101 | 314 | 1.7 | 2.6 | 0.00 | 0.00 | 0.00 | 34 | 1012.2 |
| 20260903222427 | 100 | 161 | 1.7 | 2.6 | 0.00 | 0.00 | 0.00 | 35 | 1012.0 |